TimePST,TemperatureF,Dew PointF,Humidity,Sea Level PressureIn,VisibilityMPH,Wind Direction,Wind SpeedMPH,Gust SpeedMPH,PrecipitationIn,Events,Conditions,WindDirDegrees,DateUTC
12:53 AM,39.0,37.0,93,30.25,10.0,North,3.5,-,N/A,,Clear,350,2013-11-26 08:53:00
1:53 AM,39.0,36.0,89,30.24,10.0,SW,3.5,-,N/A,,Clear,230,2013-11-26 09:53:00
2:53 AM,37.9,36.0,93,30.24,10.0,Calm,Calm,-,N/A,,Clear,0,2013-11-26 10:53:00
3:53 AM,37.9,36.0,93,30.24,10.0,NW,3.5,-,N/A,,Clear,310,2013-11-26 11:53:00
4:53 AM,37.9,36.0,93,30.23,10.0,NW,3.5,-,N/A,,Clear,310,2013-11-26 12:53:00
5:53 AM,35.1,34.0,96,30.23,7.0,Calm,Calm,-,N/A,,Clear,0,2013-11-26 13:53:00
6:53 AM,36.0,36.0,100,30.22,8.0,Calm,Calm,-,N/A,,Clear,0,2013-11-26 14:53:00
7:53 AM,37.0,36.0,96,30.22,10.0,Calm,Calm,-,N/A,,Mostly Cloudy,0,2013-11-26 15:53:00
8:53 AM,43.0,39.0,86,30.23,10.0,Calm,Calm,-,N/A,,Mostly Cloudy,0,2013-11-26 16:53:00
9:53 AM,48.9,41.0,74,30.22,10.0,Calm,Calm,-,N/A,,Mostly Cloudy,0,2013-11-26 17:53:00
10:53 AM,53.1,41.0,64,30.19,10.0,Calm,Calm,-,N/A,,Mostly Cloudy,0,2013-11-26 18:53:00
11:53 AM,55.0,41.0,59,30.16,10.0,South,3.5,-,N/A,,Mostly Cloudy,180,2013-11-26 19:53:00
12:53 PM,59.0,41.0,51,30.13,10.0,Calm,Calm,-,N/A,,Mostly Cloudy,0,2013-11-26 20:53:00
1:53 PM,60.1,39.9,47,30.10,10.0,Calm,Calm,-,N/A,,Mostly Cloudy,0,2013-11-26 21:53:00
2:53 PM,62.1,39.9,44,30.07,10.0,South,3.5,-,N/A,,Mostly Cloudy,180,2013-11-26 22:53:00
3:53 PM,60.1,42.1,51,30.06,10.0,Calm,Calm,-,N/A,,Overcast,0,2013-11-26 23:53:00
4:53 PM,57.0,41.0,55,30.06,10.0,Calm,Calm,-,N/A,,Mostly Cloudy,0,2013-11-27 00:53:00
5:53 PM,51.1,41.0,68,30.07,10.0,Calm,Calm,-,N/A,,Mostly Cloudy,0,2013-11-27 01:53:00
6:53 PM,50.0,42.1,74,30.07,10.0,Calm,Calm,-,N/A,,Mostly Cloudy,0,2013-11-27 02:53:00
7:53 PM,48.9,42.1,77,30.06,10.0,Calm,Calm,-,N/A,,Clear,0,2013-11-27 03:53:00
8:53 PM,46.0,41.0,83,30.06,10.0,Calm,Calm,-,N/A,,Clear,0,2013-11-27 04:53:00
9:53 PM,45.0,41.0,86,30.05,10.0,Calm,Calm,-,N/A,,Clear,0,2013-11-27 05:53:00
10:53 PM,44.1,41.0,89,30.03,10.0,Calm,Calm,-,N/A,,Clear,0,2013-11-27 06:53:00
11:53 PM,43.0,41.0,93,30.03,10.0,NNW,3.5,-,N/A,,Clear,330,2013-11-27 07:53:00